DECAYED

STARLINK-1725, 46334 (Decayed)

Orbit data source: Space-Track

STARLINK-1725, 46334 was a payload satellite owned by SpaceX/Seattle (US) in LEO that was launched on Thu, 03 Sep 2020 UTC via an FALCON 9 launch vehicle from the Air Force Eastern Test Range (AFETR). Payload-class satellites include a variety of spacecraft equipped with specific instruments for various scientific and technological missions. These include communications satellites like Starlink; space stations such as the ISS; scientific satellites like the Hubble; Earth observation satellites from companies like Planet Labs, Umbra, and HawkEye 360; GPS; miniature CubeSats for education and research; and military/defense satellites.

Not visible in the next 10 days
Identifier
46334, 2020-062K
Orbit
Decayed
Country
Flag of USUS
Related business
Manufacturer
SpaceX/Seattle
Mission
Decayed Commercial Communications
Bus & Motor
STARLINK, Unknown motor
Mass
260 kg wet, ~248 kg dry
Launch date (UTC)
2020-09-03 (5 years ago)
Launch vehicle
FALCON 9
Launch site
Air Force Eastern Test Range (AFETR)
Object type
Payload
Rocket body
Debris
Shape & HBR
Box + 1 Pan, 10.1 m
Radar Cross Section
13.562 m², Large (>1 m²)

Expand to show TLE details & history
Last TLE update: 10 months ago

TLE from 10 months ago
0 STARLINK-1725
1 46334U 20062K   25044.12641125  .13324878  12377-4  77411-3 0  9990
2 46334  53.0265 267.2117 0003412 231.6288 270.1331 16.41809555246473
Epoch: 2025-02-13T03:02Z
TLE epoch observation values (Epoch: 2025-02-13T03:02:01.931Z)
Latitude
29.7595°
Longitude
-127.04172°
Altitude
162.639 km
Speed
7.813 km/s
True Right ascension
04h 07m 29s
True Declination
29° 35' 53"
Sunlit
Object was in daylight at epoch
Visualization orbit readout
Latitude
Unknown
Longitude
Unknown
Altitude
Unknown
Speed
Unknown
Apparent Right ascension
Unknown
Apparent Declination
Unknown
Sunlit
N/A
Visualization observer readout
Local Sidereal Time
13:44:39
Azimuth
Unknown
Elevation
Unknown
Doppler factor
Unknown
Orbital elements
Apogee altitude
163.515 km
Perigee altitude
159.053 km
Semi-major axis
6,539.421 km
Eccentricity
0.00034
Inclination
53.0265°
RAAN
267.2117°
Arg. of periapsis
231.6288°
True anomaly
270.094°
Mean anomaly
270.1331°
Eccentric anomaly
270.11355°
Mean motion
4.10425 °/min
Orbital period
87.71 mins
BSTAR
0.00077411
Loading maneuver chart data...
Computing Atmospheric mass density...

Documentation

Showing up to 5 results
|